Sheridan, IN

10:25 AM EST on January 24, 2017 (GMT -0500)
Indianapolis Terry

Weather History for KTYQ - June, 2013

Change the Weather History Date:

Saturday, June 29, 2013

  Actual Average (KEYE) Record (KEYE)
Temperature  
Mean Temperature 68 °F -  
Max Temperature 73 °F 80 °F 101 °F (2012)
Min Temperature 62 °F 63 °F 54 °F (2004)
Cooling Degree Days 2    
Growing Degree Days 18 (Base 50)    
Moisture  
Dew Point 61 °F    
Average Humidity 83    
Maximum Humidity 90    
Minimum Humidity 68    
Precipitation  
Precipitation 0.69 in - - ()
Sea Level Pressure  
Sea Level Pressure 29.64 in    
Wind  
Wind Speed 4 mph (WNW)    
Max Wind Speed 12 mph    
Max Gust Speed 13 mph    
Visibility 10 miles    
Events Rain , Thunderstorm    
Averages and records for this station are not official NWS values.
T = Trace of Precipitation, MM = Missing Value Source: NWS Daily Summary

Daily Weather History Graph

Daily Weather History Graph

Search for Another Location

Airport or City:

Trip Planner

Search our weather history database for the weather conditions in past years. The results will help you decide how hot, cold, wet, or windy it might be!

Date:

Astronomy

Jun. 29, 2013 Rise Set
Actual Time 6:18 AM EDT 9:17 PM EDT
Civil Twilight 5:46 AM EDT 9:50 PM EDT
Nautical Twilight 5:04 AM EDT 10:32 PM EDT
Astronomical Twilight 4:16 AM EDT 11:20 PM EDT
Moon 12:46 AM EDT (6/29) 1:29 PM EDT (6/29)
Length of Visible Light 16h 04m
Length of Day
14h 59m
Waning Gibbous, 56% of the Moon is Illuminated
Jun 29
Waning Gibbous
Jun 30
Last Quarter
Jul 8
New
Jul 15
First Quarter
Jul 22
Full

Hourly Weather History & Observations

Time (EDT) Temp. Dew Point Humidity Pressure Visibility Wind Dir Wind Speed Gust Speed Precip Events Conditions
12:15 AM 65.3 °F 61.0 °F 86% 29.64 in 10.0 mi SW 4.6 mph - N/A   Clear
12:35 AM 64.9 °F 60.8 °F 86% 29.64 in 10.0 mi WSW 4.6 mph - N/A   Clear
12:55 AM 64.8 °F 60.8 °F 87% 29.64 in 10.0 mi WSW 5.8 mph - N/A   Clear
1:15 AM 64.8 °F 61.0 °F 88% 29.63 in 10.0 mi WSW 5.8 mph - N/A   Clear
1:35 AM 64.6 °F 60.8 °F 88% 29.62 in 10.0 mi West 5.8 mph - N/A   Clear
1:55 AM 64.4 °F 60.8 °F 88% 29.62 in 10.0 mi WSW 5.8 mph - N/A   Clear
2:15 AM 64.6 °F 60.8 °F 88% 29.62 in 10.0 mi WSW 4.6 mph - N/A   Scattered Clouds
2:35 AM 64.4 °F 60.4 °F 87% 29.62 in 10.0 mi Calm Calm - N/A   Overcast
2:55 AM 64.0 °F 60.3 °F 87% 29.62 in 10.0 mi West 3.5 mph - N/A   Mostly Cloudy
3:15 AM 63.5 °F 59.9 °F 88% 29.61 in 10.0 mi Calm Calm - N/A   Scattered Clouds
3:35 AM 63.5 °F 59.9 °F 88% 29.61 in 10.0 mi West 4.6 mph - N/A   Clear
3:55 AM 63.7 °F 60.1 °F 88% 29.61 in 10.0 mi WSW 3.5 mph - N/A   Clear
4:15 AM 63.5 °F 59.9 °F 88% 29.61 in 10.0 mi WSW 4.6 mph - N/A   Clear
4:35 AM 63.5 °F 59.9 °F 88% 29.61 in 10.0 mi WSW 4.6 mph - N/A   Clear
4:55 AM 63.1 °F 59.7 °F 89% 29.61 in 10.0 mi Calm Calm - N/A   Clear
5:15 AM 62.8 °F 59.4 °F 89% 29.61 in 10.0 mi West 4.6 mph - N/A   Clear
5:35 AM 62.8 °F 59.4 °F 89% 29.62 in 10.0 mi WSW 3.5 mph - N/A   Clear
5:55 AM 62.6 °F 59.2 °F 89% 29.62 in 10.0 mi West 4.6 mph - N/A   Clear
6:15 AM 62.6 °F 59.4 °F 89% 29.62 in 10.0 mi West 4.6 mph - N/A   Clear
6:35 AM 62.6 °F 59.2 °F 89% 29.62 in 7.0 mi West 4.6 mph - N/A   Clear
6:55 AM 63.0 °F 59.9 °F 90% 29.62 in 10.0 mi West 4.6 mph - N/A   Clear
7:15 AM 63.5 °F 60.3 °F 89% 29.62 in 7.0 mi West 5.8 mph - N/A   Clear
7:35 AM 64.4 °F 61.2 °F 89% 29.62 in 10.0 mi WNW 3.5 mph - N/A   Scattered Clouds
7:55 AM 64.4 °F 60.8 °F 88% 29.63 in 10.0 mi West 4.6 mph - N/A   Clear
8:15 AM 65.3 °F 61.9 °F 89% 29.63 in 10.0 mi West 5.8 mph - N/A   Clear
8:35 AM 66.2 °F 62.1 °F 86% 29.63 in 10.0 mi WNW 5.8 mph - N/A   Mostly Cloudy
8:55 AM 66.2 °F 62.2 °F 87% 29.64 in 10.0 mi WNW 5.8 mph - N/A   Overcast
9:15 AM 66.6 °F 62.2 °F 86% 29.64 in 10.0 mi WNW 3.5 mph - N/A   Overcast
9:35 AM 67.1 °F 62.4 °F 85% 29.64 in 10.0 mi WNW 4.6 mph - N/A   Overcast
9:55 AM 68.4 °F 62.8 °F 82% 29.64 in 10.0 mi WNW 4.6 mph - N/A   Overcast
10:15 AM 69.3 °F 62.6 °F 79% 29.64 in 10.0 mi Calm Calm - N/A   Mostly Cloudy
10:35 AM 69.4 °F 61.9 °F 77% 29.64 in 10.0 mi WNW 3.5 mph - N/A Rain Light Rain
10:55 AM 68.9 °F 63.0 °F 81% 29.64 in 7.0 mi WSW 3.5 mph - N/A Rain Light Rain
11:15 AM 68.2 °F 63.0 °F 83% 29.64 in 5.0 mi SW 3.5 mph - 0.02 in Rain Light Rain
11:35 AM 68.0 °F 63.3 °F 85% 29.63 in 7.0 mi WSW 3.5 mph - 0.04 in Rain Light Rain
11:55 AM 68.9 °F 63.7 °F 83% 29.63 in 7.0 mi Calm Calm - 0.04 in Rain Light Rain
12:15 PM 70.0 °F 63.3 °F 79% 29.63 in 10.0 mi SW 4.6 mph - N/A   Mostly Cloudy
12:35 PM 70.9 °F 63.3 °F 77% 29.63 in 10.0 mi WSW 4.6 mph - N/A   Mostly Cloudy
12:55 PM 71.2 °F 63.1 °F 75% 29.63 in 10.0 mi West 4.6 mph - N/A   Overcast
1:15 PM 71.8 °F 62.2 °F 72% 29.63 in 10.0 mi South 3.5 mph - N/A   Mostly Cloudy
1:35 PM 72.7 °F 63.0 °F 71% 29.63 in 10.0 mi SSE 3.5 mph - N/A   Mostly Cloudy
1:55 PM 73.4 °F 62.4 °F 68% 29.63 in 10.0 mi Calm Calm - N/A   Overcast
2:15 PM 68.7 °F 61.2 °F 77% 29.64 in 10.0 mi NE 11.5 mph - N/A Thunderstorm Thunderstorm
2:35 PM 64.9 °F 59.9 °F 84% 29.65 in 10.0 mi NE 5.8 mph - N/A Rain , Thunderstorm Thunderstorms and Rain
2:55 PM 63.7 °F 59.0 °F 85% 29.66 in 0.8 mi North 8.1 mph 12.7 mph 0.47 in Rain , Thunderstorm Heavy Thunderstorms and Rain
3:15 PM 63.7 °F 59.7 °F 87% 29.64 in 3.0 mi ENE 3.5 mph - 0.16 in Rain , Thunderstorm Thunderstorms and Rain
3:35 PM 63.9 °F 59.9 °F 87% 29.64 in 10.0 mi ENE 3.5 mph - 0.17 in Rain Light Rain
3:55 PM 64.4 °F 59.9 °F 85% 29.63 in 10.0 mi NE 3.5 mph - 0.17 in Thunderstorm Scattered Clouds
4:15 PM 64.8 °F 60.8 °F 87% 29.65 in 10.0 mi South 4.6 mph - 0.01 in Rain Light Rain
4:35 PM 65.3 °F 60.4 °F 84% 29.65 in 10.0 mi Calm Calm - 0.01 in Rain Light Rain
4:55 PM 66.4 °F 60.3 °F 81% 29.65 in 10.0 mi Calm Calm - 0.01 in   Scattered Clouds
5:15 PM 67.5 °F 61.5 °F 81% 29.63 in 10.0 mi NNE 5.8 mph - N/A   Clear
5:35 PM 68.5 °F 62.4 °F 81% 29.64 in 10.0 mi NE 4.6 mph - N/A   Scattered Clouds
5:55 PM 69.6 °F 62.1 °F 77% 29.65 in 10.0 mi ENE 3.5 mph - N/A   Scattered Clouds
6:15 PM 69.4 °F 60.6 °F 73% 29.65 in 10.0 mi NNE 3.5 mph - N/A   Mostly Cloudy
6:35 PM 69.8 °F 61.0 °F 73% 29.65 in 10.0 mi ENE 3.5 mph - N/A   Mostly Cloudy
6:55 PM 70.0 °F 60.8 °F 73% 29.65 in 10.0 mi Calm Calm - N/A   Scattered Clouds
7:15 PM 70.7 °F 60.8 °F 71% 29.65 in 10.0 mi Calm Calm - N/A   Scattered Clouds
7:35 PM 70.2 °F 60.4 °F 71% 29.65 in 10.0 mi Calm Calm - N/A   Clear
7:55 PM 70.3 °F 60.8 °F 72% 29.66 in 10.0 mi NNE 5.8 mph - N/A   Clear
8:15 PM 70.0 °F 61.0 °F 73% 29.67 in 10.0 mi North 5.8 mph - N/A Thunderstorm Scattered Clouds
8:35 PM 69.4 °F 61.2 °F 75% 29.67 in 10.0 mi North 4.6 mph - N/A   Scattered Clouds
8:55 PM 68.9 °F 61.9 °F 78% 29.67 in 10.0 mi NNE 3.5 mph - N/A   Mostly Cloudy
9:15 PM 68.9 °F 62.1 °F 79% 29.67 in 10.0 mi North 8.1 mph - N/A   Overcast
9:35 PM 67.6 °F 60.6 °F 78% 29.68 in 10.0 mi North 4.6 mph - N/A   Overcast
9:55 PM 66.6 °F 60.4 °F 81% 29.69 in 10.0 mi North 5.8 mph - N/A   Overcast
10:15 PM 66.2 °F 60.3 °F 81% 29.69 in 10.0 mi NE 3.5 mph - N/A   Mostly Cloudy
10:35 PM 65.8 °F 60.8 °F 84% 29.70 in 10.0 mi North 3.5 mph - N/A   Scattered Clouds
10:55 PM 65.5 °F 61.0 °F 85% 29.70 in 10.0 mi Calm Calm - N/A   Scattered Clouds
11:15 PM 65.3 °F 61.2 °F 86% 29.71 in 10.0 mi Calm Calm - N/A   Mostly Cloudy
11:35 PM 65.3 °F 61.0 °F 86% 29.70 in 10.0 mi North 4.6 mph - N/A   Overcast
11:55 PM 65.3 °F 61.0 °F 86% 29.70 in 10.0 mi North 3.5 mph - N/A   Overcast